"SCET";"TARGET";"ELECTRON_DENSITY";"ERROR_FLAG";"ELECTRON_DENSITY_ERROR";"FREQ_FCE";"MEASURED_VALUE";"MEASURED_ITEM";"FREQ_PLASMA";"FREQ_UPPER_HYBRID";"FREQ_R_EQUALS_ZERO";"FREQ_L_EQUALS_ZERO";"ORBIT_NUMBER";"SATURN_RADIUS";"SATURN_IAU_LONGITUDE";"SATURN_SLS4_S_LONGITUDE";"SATURN_SLS4_N_LONGITUDE";"SATURN_SLS5_S_LONGITUDE";"SATURN_SLS5_N_LONGITUDE";"SATURN_LOCAL_TIME";"SATURN_KRONOGRAPHIC_LATITUDE";"SATURN_MAGNETIC_LATITUDE";"SATURN_L";"SATURN_L_OFFSET";"SATURN_SOLAR_EQUATORIAL_X";"SATURN_SOLAR_EQUATORIAL_Y";"SATURN_SOLAR_EQUATORIAL_Z";"SATURN_ALTITUDE";"ENCELADUS_ENCOUNTER_NUMBER";"ENCELADUS_RADIUS";"ENCELADUS_COROTATIONAL_X";"ENCELADUS_COROTATIONAL_Y";"ENCELADUS_COROTATIONAL_Z";"ENCELADUS_TRUE_ANOMALY";"ENCELADUS_PERIAPSIS_TIME";"JUPITER_RADIUS";"JUPITER_SYSTEMIII_LONGITUDE";"JUPITER_MAGNETIC_LATITUDE";"JUPITER_MAGNETIC_LOCAL_TIME";"JUPITER_L";"IO_PHASE";"EARTH_RADIUS";"EARTH_MAGNETIC_LATITUDE";"EARTH_LOCAL_TIME";"EARTH_L"
"[UTC]";"[0=Saturn, 1=Enceladus, 2=Jupiter, 3=Earth]";"[cm-3]";"[0=automated, 1=manual]";"[normalized density error]";"[Hz]";"[Hz]";"[0=upper hybrid frequency, 1=plasma frequency cutoff]";"[Hz]";"[Hz]";"[Hz]";"[Hz}";"[0, A, B, C, 3, 4, ... , 292, 293]";"[Rs where 1Rs=60268km]";"[degrees]";"[degrees]";"[degrees]";"[degrees]";"[degrees]";"[hours]";"[degrees]";"[degrees where offset=2293km north]";"[Rs where 1Rs=60268km]";"[Rs where 1Rs=60268km and offset=2293km north]";"[Rs where 1Rs=60268km]";"[Rs where 1Rs=60268km]";"[Rs where 1Rs=60268km]";"[km where ellipsoid a,b=60268km and c=54364km]";"[E0, E1, E2, ... , E21, E22]";"[Renc where 1Renc=252.1km]";"[Renc where 1Renc=252.1km]";"[Renc where 1Renc=252.1km]";"[Renc where 1Renc=252.1km]";"[degrees]";"[UTC]";"[Rj where 1Rj=71492km]";"[degrees]";"[degrees using JRM09 model]";"[hours using JRM09 model]";"[Rj where 1Rj=71492km]";"[degrees]";"[Re where 1Re=6378.1366km]";"[degrees]";"[hours]";"[Re where 1Re=6378.1366km]"
2006-12-03T00:00:05.831Z;0;3.9250e+01;0;     0.078;  4928.476;  56478.188; 0;  56262.738;  56478.188;  58780.918;  53852.441; 34;   4.860; 340.485; 180.619; 170.966; 187.121; 185.022;  13.847;  -5.139;  -5.585;   4.899;   4.859;   4.286;   2.251;  -0.435;;;;;;;;;;;;;;;;;;
2006-12-03T00:00:13.830Z;0;3.9370e+01;0;     0.079;  4928.476;  56563.688; 0;  56348.566;  56563.688;  58866.660;  53938.184; 34;   4.861; 340.547; 180.679; 171.028; 187.182; 185.084;  13.848;  -5.120;  -5.567;   4.900;   4.859;   4.286;   2.252;  -0.434;;;;;;;;;;;;;;;;;;
2006-12-03T00:00:21.830Z;0;3.9330e+01;0;     0.078;  4928.476;  56532.277; 0;  56317.035;  56532.277;  58835.160;  53906.684; 34;   4.861; 340.608; 180.740; 171.090; 187.243; 185.146;  13.849;  -5.102;  -5.548;   4.900;   4.859;   4.286;   2.253;  -0.432;;;;;;;;;;;;;;;;;;
2006-12-03T00:00:29.830Z;0;3.9410e+01;0;     0.079;  4928.476;  56588.199; 0;  56373.172;  56588.199;  58891.242;  53962.766; 34;   4.861; 340.670; 180.801; 171.153; 187.303; 185.208;  13.850;  -5.083;  -5.529;   4.900;   4.860;   4.286;   2.254;  -0.431;;;;;;;;;;;;;;;;;;
2006-12-03T00:00:37.830Z;0;3.9370e+01;0;     0.079;  4928.476;  56563.926; 0;  56348.805;  56563.926;  58866.898;  53938.426; 34;   4.862; 340.732; 180.861; 171.215; 187.364; 185.270;  13.850;  -5.064;  -5.510;   4.900;   4.860;   4.285;   2.256;  -0.429;;;;;;;;;;;;;;;;;;
2006-12-03T00:00:45.830Z;0;3.9520e+01;0;     0.074;  4928.476;  56666.559; 0;  56451.828;  56666.559;  58969.824;  54041.352; 34;   4.862; 340.794; 180.922; 171.278; 187.425; 185.332;  13.851;  -5.045;  -5.492;   4.900;   4.861;   4.285;   2.257;  -0.427;;;;;;;;;;;;;;;;;;
2006-12-03T00:00:53.830Z;0;3.9500e+01;0;     0.078;  4928.476;  56655.195; 0;  56440.422;  56655.195;  58958.430;  54029.953; 34;   4.862; 340.856; 180.983; 171.340; 187.485; 185.394;  13.852;  -5.027;  -5.473;   4.900;   4.861;   4.285;   2.258;  -0.426;;;;;;;;;;;;;;;;;;
2006-12-03T00:01:01.830Z;0;3.9540e+01;0;     0.078;  4915.176;  56677.711; 0;  56464.184;  56677.711;  58975.230;  54060.051; 34;   4.863; 340.918; 181.044; 171.402; 187.546; 185.456;  13.853;  -5.008;  -5.454;   4.900;   4.861;   4.285;   2.259;  -0.424;;;;;;;;;;;;;;;;;;
2006-12-03T00:01:09.830Z;0;3.9740e+01;0;     0.083;  4915.176;  56825.387; 0;  56612.414;  56825.387;  59123.320;  54208.145; 34;   4.863; 340.980; 181.104; 171.465; 187.607; 185.518;  13.854;  -4.989;  -5.435;   4.900;   4.862;   4.285;   2.260;  -0.423;;;;;;;;;;;;;;;;;;
2006-12-03T00:01:17.830Z;0;3.9790e+01;0;     0.080;  4915.176;  56855.859; 0;  56643.004;  56855.859;  59153.879;  54238.703; 34;   4.863; 341.042; 181.165; 171.527; 187.667; 185.580;  13.855;  -4.971;  -5.417;   4.900;   4.862;   4.285;   2.262;  -0.421;;;;;;;;;;;;;;;;;;
2006-12-03T00:01:25.830Z;0;3.9810e+01;0;     0.082;  4915.176;  56873.637; 0;  56660.848;  56873.637;  59171.707;  54256.531; 34;   4.864; 341.103; 181.226; 171.590; 187.728; 185.642;  13.856;  -4.952;  -5.398;   4.900;   4.862;   4.285;   2.263;  -0.420;;;;;;;;;;;;;;;;;;
2006-12-03T00:01:33.830Z;0;3.9760e+01;0;     0.080;  4915.176;  56834.758; 0;  56621.820;  56834.758;  59132.719;  54217.543; 34;   4.864; 341.165; 181.287; 171.652; 187.789; 185.704;  13.857;  -4.933;  -5.379;   4.900;   4.863;   4.285;   2.264;  -0.418;;;;;;;;;;;;;;;;;;
2006-12-03T00:01:41.830Z;0;4.0070e+01;0;     0.082;  4915.176;  57053.906; 0;  56841.793;  57053.906;  59352.484;  54437.305; 34;   4.865; 341.227; 181.347; 171.714; 187.849; 185.766;  13.858;  -4.915;  -5.361;   4.901;   4.863;   4.285;   2.265;  -0.417;;;;;;;;;;;;;;;;;;
2006-12-03T00:01:49.830Z;0;3.9760e+01;0;     0.080;  4915.176;  56837.828; 0;  56624.902;  56837.828;  59135.797;  54220.621; 34;   4.865; 341.289; 181.408; 171.777; 187.910; 185.828;  13.858;  -4.896;  -5.342;   4.901;   4.863;   4.285;   2.267;  -0.415;;;;;;;;;;;;;;;;;;
2006-12-03T00:01:57.830Z;0;3.9950e+01;0;     0.083;  4915.176;  56973.199; 0;  56760.781;  56973.199;  59271.551;  54356.375; 34;   4.865; 341.351; 181.469; 171.839; 187.970; 185.890;  13.859;  -4.877;  -5.323;   4.901;   4.864;   4.285;   2.268;  -0.413;;;;;;;;;;;;;;;;;;
2006-12-03T00:02:05.830Z;0;4.0130e+01;0;     0.084;  4902.296;  57094.828; 0;  56883.977;  57094.828;  59387.910;  54485.617; 34;   4.866; 341.413; 181.530; 171.902; 188.031; 185.952;  13.860;  -4.859;  -5.305;   4.901;   4.864;   4.285;   2.269;  -0.412;;;;;;;;;;;;;;;;;;
2006-12-03T00:02:13.830Z;0;4.0100e+01;0;     0.081;  4902.296;  57072.945; 0;  56862.012;  57072.945;  59365.969;  54463.672; 34;   4.866; 341.475; 181.590; 171.964; 188.091; 186.014;  13.861;  -4.840;  -5.286;   4.901;   4.864;   4.285;   2.270;  -0.410;;;;;;;;;;;;;;;;;;
2006-12-03T00:02:21.830Z;0;4.0150e+01;0;     0.086;  4902.296;  57109.219; 0;  56898.422;  57109.219;  59402.344;  54500.047; 34;   4.866; 341.537; 181.651; 172.026; 188.152; 186.076;  13.862;  -4.821;  -5.267;   4.901;   4.865;   4.284;   2.271;  -0.409;;;;;;;;;;;;;;;;;;
2006-12-03T00:02:29.830Z;0;4.0350e+01;0;     0.090;  4902.296;  57249.355; 0;  57039.074;  57249.355;  59542.867;  54640.570; 34;   4.867; 341.599; 181.712; 172.089; 188.212; 186.137;  13.863;  -4.803;  -5.248;   4.901;   4.865;   4.284;   2.273;  -0.407;;;;;;;;;;;;;;;;;;
2006-12-03T00:02:37.830Z;0;4.0510e+01;0;     0.087;  4902.296;  57361.867; 0;  57152.000;  57361.867;  59655.688;  54753.391; 34;   4.867; 341.660; 181.773; 172.151; 188.273; 186.199;  13.864;  -4.784;  -5.230;   4.901;   4.866;   4.284;   2.274;  -0.406;;;;;;;;;;;;;;;;;;
2006-12-03T00:02:45.830Z;0;4.0670e+01;0;     0.087;  4902.296;  57476.828; 0;  57267.383;  57476.828;  59770.965;  54868.668; 34;   4.868; 341.722; 181.833; 172.214; 188.333; 186.261;  13.865;  -4.765;  -5.211;   4.901;   4.866;   4.284;   2.275;  -0.404;;;;;;;;;;;;;;;;;;
2006-12-03T00:02:53.829Z;0;4.1450e+01;0;     0.093;  4902.296;  58020.188; 0;  57812.711;  58020.188;  60315.797;  55413.504; 34;   4.868; 341.784; 181.894; 172.276; 188.394; 186.323;  13.865;  -4.747;  -5.192;   4.902;   4.866;   4.284;   2.276;  -0.403;;;;;;;;;;;;;;;;;;
2006-12-03T00:03:01.829Z;0;4.1520e+01;0;     0.097;  4889.976;  58072.277; 0;  57866.031;  58072.277;  60362.648;  55472.672; 34;   4.868; 341.846; 181.955; 172.339; 188.454; 186.385;  13.866;  -4.728;  -5.174;   4.902;   4.867;   4.284;   2.278;  -0.401;;;;;;;;;;;;;;;;;;
2006-12-03T00:03:09.829Z;0;4.1470e+01;0;     0.093;  4889.976;  58034.660; 0;  57828.281;  58034.660;  60324.934;  55434.957; 34;   4.869; 341.908; 182.016; 172.401; 188.515; 186.446;  13.867;  -4.709;  -5.155;   4.902;   4.867;   4.284;   2.279;  -0.400;;;;;;;;;;;;;;;;;;
2006-12-03T00:03:17.829Z;0;4.1870e+01;0;     0.087;  4889.976;  58314.652; 0;  58109.266;  58314.652;  60605.668;  55715.691; 34;   4.869; 341.970; 182.076; 172.464; 188.575; 186.508;  13.868;  -4.691;  -5.136;   4.902;   4.867;   4.284;   2.280;  -0.398;;;;;;;;;;;;;;;;;;
2006-12-03T00:03:25.829Z;0;4.1900e+01;0;     0.096;  4889.976;  58334.066; 0;  58128.750;  58334.066;  60625.133;  55735.156; 34;   4.869; 342.032; 182.137; 172.526; 188.635; 186.570;  13.869;  -4.672;  -5.118;   4.902;   4.868;   4.284;   2.281;  -0.396;;;;;;;;;;;;;;;;;;
2006-12-03T00:03:33.829Z;0;4.2360e+01;0;     0.090;  4889.976;  58650.895; 0;  58446.691;  58650.895;  60942.797;  56052.820; 34;   4.870; 342.094; 182.198; 172.588; 188.696; 186.631;  13.870;  -4.653;  -5.099;   4.902;   4.868;   4.284;   2.282;  -0.395;;;;;;;;;;;;;;;;;;
2006-12-03T00:03:41.829Z;0;4.2420e+01;0;     0.087;  4889.976;  58693.133; 0;  58489.074;  58693.133;  60985.145;  56095.168; 34;   4.870; 342.156; 182.259; 172.651; 188.756; 186.693;  13.871;  -4.635;  -5.080;   4.902;   4.868;   4.284;   2.284;  -0.393;;;;;;;;;;;;;;;;;;
2006-12-03T00:03:49.829Z;0;4.2630e+01;0;     0.085;  4889.976;  58835.559; 0;  58631.996;  58835.559;  61127.941;  56237.965; 34;   4.871; 342.218; 182.319; 172.713; 188.817; 186.755;  13.872;  -4.616;  -5.062;   4.902;   4.869;   4.284;   2.285;  -0.392;;;;;;;;;;;;;;;;;;
2006-12-03T00:03:57.829Z;0;4.2760e+01;0;     0.086;  4889.976;  58926.840; 0;  58723.594;  58926.840;  61219.461;  56329.484; 34;   4.871; 342.280; 182.380; 172.776; 188.877; 186.816;  13.872;  -4.597;  -5.043;   4.902;   4.869;   4.284;   2.286;  -0.390;;;;;;;;;;;;;;;;;;
2006-12-03T00:04:05.829Z;0;4.2610e+01;0;     0.082;  4876.480;  58822.480; 0;  58619.996;  58822.480;  61108.926;  56232.445; 34;   4.871; 342.341; 182.441; 172.838; 188.937; 186.878;  13.873;  -4.579;  -5.024;   4.903;   4.870;   4.283;   2.287;  -0.389;;;;;;;;;;;;;;;;;;
2006-12-03T00:04:13.829Z;0;4.2770e+01;0;     0.088;  4876.480;  58928.250; 0;  58726.133;  58928.250;  61214.965;  56338.488; 34;   4.872; 342.403; 182.502; 172.901; 188.997; 186.940;  13.874;  -4.560;  -5.006;   4.903;   4.870;   4.283;   2.289;  -0.387;;;;;;;;;;;;;;;;;;
2006-12-03T00:04:21.829Z;0;4.3010e+01;0;     0.079;  4876.480;  59093.551; 0;  58892.000;  59093.551;  61380.691;  56504.211; 34;   4.872; 342.465; 182.563; 172.963; 189.058; 187.001;  13.875;  -4.541;  -4.987;   4.903;   4.870;   4.283;   2.290;  -0.386;;;;;;;;;;;;;;;;;;
2006-12-03T00:04:29.829Z;0;4.2860e+01;0;     0.080;  4876.480;  58992.957; 0;  58791.062;  58992.957;  61279.840;  56403.359; 34;   4.872; 342.527; 182.623; 173.026; 189.118; 187.063;  13.876;  -4.523;  -4.968;   4.903;   4.871;   4.283;   2.291;  -0.384;;;;;;;;;;;;;;;;;;
2006-12-03T00:04:37.829Z;0;4.3000e+01;0;     0.080;  4876.480;  59090.629; 0;  58889.066;  59090.629;  61377.762;  56501.281; 34;   4.873; 342.589; 182.684; 173.088; 189.178; 187.125;  13.877;  -4.504;  -4.950;   4.903;   4.871;   4.283;   2.292;  -0.382;;;;;;;;;;;;;;;;;;
2006-12-03T00:04:45.829Z;0;4.3110e+01;0;     0.080;  4876.480;  59160.430; 0;  58959.109;  59160.430;  61447.742;  56571.262; 34;   4.873; 342.651; 182.745; 173.150; 189.239; 187.186;  13.878;  -4.486;  -4.931;   4.903;   4.871;   4.283;   2.293;  -0.381;;;;;;;;;;;;;;;;;;
2006-12-03T00:04:53.829Z;0;4.3250e+01;0;     0.078;  4876.480;  59260.398; 0;  59059.418;  59260.398;  61547.965;  56671.488; 34;   4.874; 342.713; 182.806; 173.213; 189.299; 187.248;  13.879;  -4.467;  -4.913;   4.903;   4.872;   4.283;   2.295;  -0.379;;;;;;;;;;;;;;;;;;
2006-12-03T00:05:01.829Z;0;4.3160e+01;0;     0.077;  4862.648;  59195.637; 0;  58995.578;  59195.637;  61476.980;  56614.332; 34;   4.874; 342.775; 182.867; 173.275; 189.359; 187.309;  13.879;  -4.448;  -4.894;   4.903;   4.872;   4.283;   2.296;  -0.378;;;;;;;;;;;;;;;;;;
2006-12-03T00:05:09.829Z;0;4.3430e+01;0;     0.078;  4862.648;  59379.285; 0;  59179.848;  59379.285;  61661.094;  56798.445; 34;   4.874; 342.837; 182.927; 173.338; 189.419; 187.371;  13.880;  -4.430;  -4.875;   4.904;   4.872;   4.283;   2.297;  -0.376;;;;;;;;;;;;;;;;;;
2006-12-03T00:05:17.829Z;0;4.3360e+01;0;     0.077;  4862.648;  59330.195; 0;  59130.590;  59330.195;  61611.879;  56749.230; 34;   4.875; 342.899; 182.988; 173.400; 189.479; 187.432;  13.881;  -4.411;  -4.857;   4.904;   4.873;   4.283;   2.298;  -0.375;;;;;;;;;;;;;;;;;;
2006-12-03T00:05:25.828Z;0;4.3490e+01;0;     0.076;  4862.648;  59420.738; 0;  59221.438;  59420.738;  61702.648;  56840.004; 34;   4.875; 342.961; 183.049; 173.463; 189.540; 187.494;  13.882;  -4.393;  -4.838;   4.904;   4.873;   4.283;   2.299;  -0.373;;;;;;;;;;;;;;;;;;
2006-12-03T00:05:33.828Z;0;4.3330e+01;0;     0.076;  4862.648;  59310.242; 0;  59110.570;  59310.242;  61591.875;  56729.227; 34;   4.875; 343.023; 183.110; 173.525; 189.600; 187.555;  13.883;  -4.374;  -4.819;   4.904;   4.874;   4.283;   2.301;  -0.372;;;;;;;;;;;;;;;;;;
2006-12-03T00:05:41.828Z;0;4.3410e+01;0;     0.075;  4862.648;  59364.367; 0;  59164.879;  59364.367;  61646.137;  56783.488; 34;   4.876; 343.085; 183.171; 173.588; 189.660; 187.617;  13.884;  -4.355;  -4.801;   4.904;   4.874;   4.282;   2.302;  -0.370;;;;;;;;;;;;;;;;;;
2006-12-03T00:05:49.828Z;0;4.3350e+01;0;     0.076;  4862.648;  59324.539; 0;  59124.914;  59324.539;  61606.207;  56743.559; 34;   4.876; 343.147; 183.231; 173.650; 189.720; 187.678;  13.885;  -4.337;  -4.782;   4.904;   4.874;   4.282;   2.303;  -0.369;;;;;;;;;;;;;;;;;;
2006-12-03T00:05:57.828Z;0;4.3490e+01;0;     0.076;  4862.648;  59419.922; 0;  59220.621;  59419.922;  61701.832;  56839.184; 34;   4.877; 343.209; 183.292; 173.713; 189.780; 187.740;  13.886;  -4.318;  -4.764;   4.904;   4.875;   4.282;   2.304;  -0.367;;;;;;;;;;;;;;;;;;
2006-12-03T00:06:13.828Z;0;4.3650e+01;0;     0.074;  4848.032;  59528.059; 0;  59330.316;  59528.059;  61803.828;  56955.797; 34;   4.877; 343.333; 183.414; 173.838; 189.900; 187.863;  13.887;  -4.281;  -4.726;   4.905;   4.875;   4.282;   2.307;  -0.364;;;;;;;;;;;;;;;;;;
2006-12-03T00:06:21.828Z;0;4.3630e+01;0;     0.080;  4848.032;  59516.312; 0;  59318.531;  59516.312;  61792.055;  56944.023; 34;   4.878; 343.395; 183.475; 173.900; 189.960; 187.924;  13.888;  -4.262;  -4.708;   4.905;   4.876;   4.282;   2.308;  -0.362;;;;;;;;;;;;;;;;;;
2006-12-03T00:06:29.828Z;0;4.3760e+01;0;     0.080;  4848.032;  59603.148; 0;  59405.656;  59603.148;  61879.105;  57031.074; 34;   4.878; 343.457; 183.536; 173.963; 190.020; 187.985;  13.889;  -4.244;  -4.689;   4.905;   4.876;   4.282;   2.309;  -0.361;;;;;;;;;;;;;;;;;;
2006-12-03T00:06:37.828Z;0;4.3840e+01;0;     0.074;  4848.032;  59657.832; 0;  59460.520;  59657.832;  61933.926;  57085.895; 34;   4.879; 343.519; 183.596; 174.025; 190.080; 188.047;  13.890;  -4.225;  -4.670;   4.905;   4.876;   4.282;   2.310;  -0.359;;;;;;;;;;;;;;;;;;
2006-12-03T00:06:45.828Z;0;4.3790e+01;0;     0.080;  4848.032;  59621.184; 0;  59423.750;  59621.184;  61897.188;  57049.152; 34;   4.879; 343.581; 183.657; 174.088; 190.140; 188.108;  13.891;  -4.207;  -4.652;   4.905;   4.877;   4.282;   2.312;  -0.358;;;;;;;;;;;;;;;;;;
2006-12-03T00:06:53.828Z;0;4.3830e+01;0;     0.079;  4848.032;  59650.113; 0;  59452.777;  59650.113;  61926.188;  57078.156; 34;   4.879; 343.643; 183.718; 174.150; 190.200; 188.169;  13.892;  -4.188;  -4.633;   4.905;   4.877;   4.282;   2.313;  -0.356;;;;;;;;;;;;;;;;;;
2006-12-03T00:07:01.828Z;0;4.4160e+01;0;     0.083;  4833.948;  59868.242; 0;  59672.770;  59868.242;  62138.672;  57304.723; 34;   4.880; 343.705; 183.779; 174.213; 190.260; 188.231;  13.893;  -4.169;  -4.615;   4.906;   4.878;   4.282;   2.314;  -0.355;;;;;;;;;;;;;;;;;;
2006-12-03T00:07:09.828Z;0;4.4090e+01;0;     0.083;  4833.948;  59823.289; 0;  59627.668;  59823.289;  62093.609;  57259.660; 34;   4.880; 343.767; 183.840; 174.275; 190.320; 188.292;  13.893;  -4.151;  -4.596;   4.906;   4.878;   4.281;   2.315;  -0.353;;;;;;;;;;;;;;;;;;
2006-12-03T00:07:17.828Z;0;4.4280e+01;0;     0.087;  4833.948;  59950.551; 0;  59755.348;  59950.551;  62221.184;  57387.234; 34;   4.880; 343.829; 183.901; 174.338; 190.380; 188.353;  13.894;  -4.132;  -4.577;   4.906;   4.878;   4.281;   2.316;  -0.351;;;;;;;;;;;;;;;;;;
2006-12-03T00:07:25.828Z;0;4.4560e+01;0;     0.085;  4833.948;  60139.191; 0;  59944.602;  60139.191;  62410.281;  57576.336; 34;   4.881; 343.891; 183.961; 174.400; 190.440; 188.415;  13.895;  -4.114;  -4.559;   4.906;   4.879;   4.281;   2.318;  -0.350;;;;;;;;;;;;;;;;;;
2006-12-03T00:07:33.828Z;0;4.5550e+01;0;     0.095;  4833.948;  60800.973; 0;  60608.508;  60800.973;  63073.656;  58239.707; 34;   4.881; 343.953; 184.022; 174.463; 190.500; 188.476;  13.896;  -4.095;  -4.540;   4.906;   4.879;   4.281;   2.319;  -0.348;;;;;;;;;;;;;;;;;;
2006-12-03T00:07:41.828Z;0;4.5500e+01;0;     0.094;  4833.948;  60766.730; 0;  60574.156;  60766.730;  63039.332;  58205.383; 34;   4.882; 344.015; 184.083; 174.525; 190.560; 188.537;  13.897;  -4.077;  -4.522;   4.906;   4.879;   4.281;   2.320;  -0.347;;;;;;;;;;;;;;;;;;
2006-12-03T00:07:49.828Z;0;4.5960e+01;0;     0.090;  4833.948;  61068.301; 0;  60876.680;  61068.301;  63341.617;  58507.668; 34;   4.882; 344.077; 184.144; 174.588; 190.620; 188.598;  13.898;  -4.058;  -4.503;   4.907;   4.880;   4.281;   2.321;  -0.345;;;;;;;;;;;;;;;;;;
2006-12-03T00:07:57.828Z;0;4.5990e+01;0;     0.090;  4833.948;  61090.719; 0;  60899.168;  61090.719;  63364.086;  58530.141; 34;   4.882; 344.139; 184.205; 174.651; 190.680; 188.659;  13.899;  -4.039;  -4.485;   4.907;   4.880;   4.281;   2.323;  -0.344;;;;;;;;;;;;;;;;;;
2006-12-03T00:08:05.827Z;0;4.5860e+01;0;     0.096;  4819.332;  61004.102; 0;  60813.441;  61004.102;  63270.828;  58451.496; 34;   4.883; 344.201; 184.266; 174.713; 190.740; 188.721;  13.900;  -4.021;  -4.466;   4.907;   4.881;   4.281;   2.324;  -0.342;;;;;;;;;;;;;;;;;;
2006-12-03T00:08:13.827Z;0;4.5910e+01;0;     0.089;  4819.332;  61035.742; 0;  60845.180;  61035.742;  63302.543;  58483.211; 34;   4.883; 344.263; 184.327; 174.776; 190.800; 188.782;  13.900;  -4.002;  -4.447;   4.907;   4.881;   4.281;   2.325;  -0.341;;;;;;;;;;;;;;;;;;
2006-12-03T00:08:21.827Z;0;4.6380e+01;0;     0.087;  4819.332;  61346.465; 0;  61156.871;  61346.465;  63613.988;  58794.656; 34;   4.883; 344.325; 184.387; 174.838; 190.859; 188.843;  13.901;  -3.984;  -4.429;   4.907;   4.881;   4.281;   2.326;  -0.339;;;;;;;;;;;;;;;;;;
2006-12-03T00:08:29.827Z;0;4.6380e+01;0;     0.089;  4819.332;  61346.449; 0;  61156.855;  61346.449;  63613.973;  58794.641; 34;   4.884; 344.387; 184.448; 174.901; 190.919; 188.904;  13.902;  -3.965;  -4.410;   4.907;   4.882;   4.280;   2.327;  -0.338;;;;;;;;;;;;;;;;;;
2006-12-03T00:08:37.827Z;0;4.6290e+01;0;     0.088;  4819.332;  61286.340; 0;  61096.559;  61286.340;  63553.727;  58734.395; 34;   4.884; 344.449; 184.509; 174.963; 190.979; 188.965;  13.903;  -3.947;  -4.392;   4.908;   4.882;   4.280;   2.329;  -0.336;;;;;;;;;;;;;;;;;;
2006-12-03T00:08:45.827Z;0;4.5960e+01;0;     0.090;  4819.332;  61069.770; 0;  60879.312;  61069.770;  63336.648;  58517.316; 34;   4.885; 344.511; 184.570; 175.026; 191.039; 189.026;  13.904;  -3.928;  -4.373;   4.908;   4.882;   4.280;   2.330;  -0.334;;;;;;;;;;;;;;;;;;
2006-12-03T00:08:53.827Z;0;4.6620e+01;0;     0.086;  4819.332;  61500.730; 0;  61311.613;  61500.730;  63768.613;  58949.281; 34;   4.885; 344.573; 184.631; 175.088; 191.099; 189.088;  13.905;  -3.910;  -4.355;   4.908;   4.883;   4.280;   2.331;  -0.333;;;;;;;;;;;;;;;;;;
2006-12-03T00:09:01.827Z;0;4.6890e+01;0;     0.079;  4806.116;  61682.273; 0;  61494.750;  61682.273;  63944.742;  59138.625; 34;   4.885; 344.635; 184.692; 175.151; 191.158; 189.149;  13.906;  -3.891;  -4.336;   4.908;   4.883;   4.280;   2.332;  -0.331;;;;;;;;;;;;;;;;;;
2006-12-03T00:09:09.827Z;0;4.7010e+01;0;     0.080;  4806.116;  61755.137; 0;  61567.832;  61755.137;  64017.770;  59211.656; 34;   4.886; 344.697; 184.753; 175.213; 191.218; 189.210;  13.906;  -3.873;  -4.317;   4.908;   4.884;   4.280;   2.333;  -0.330;;;;;;;;;;;;;;;;;;
2006-12-03T00:09:17.827Z;0;4.7160e+01;0;     0.080;  4806.116;  61852.770; 0;  61665.762;  61852.770;  64115.625;  59309.512; 34;   4.886; 344.759; 184.814; 175.276; 191.278; 189.271;  13.907;  -3.854;  -4.299;   4.908;   4.884;   4.280;   2.335;  -0.328;;;;;;;;;;;;;;;;;;
2006-12-03T00:09:25.827Z;0;4.7130e+01;0;     0.080;  4806.116;  61838.508; 0;  61651.457;  61838.508;  64101.332;  59295.215; 34;   4.887; 344.821; 184.875; 175.339; 191.338; 189.332;  13.908;  -3.836;  -4.280;   4.909;   4.884;   4.280;   2.336;  -0.327;;;;;;;;;;;;;;;;;;
2006-12-03T00:09:33.827Z;0;4.7170e+01;0;     0.075;  4806.116;  61862.484; 0;  61675.508;  61862.484;  64125.363;  59319.246; 34;   4.887; 344.883; 184.935; 175.401; 191.397; 189.393;  13.909;  -3.817;  -4.262;   4.909;   4.885;   4.280;   2.337;  -0.325;;;;;;;;;;;;;;;;;;
2006-12-03T00:09:41.827Z;0;4.7420e+01;0;     0.078;  4806.116;  62023.270; 0;  61836.777;  62023.270;  64286.512;  59480.395; 34;   4.887; 344.945; 184.996; 175.464; 191.457; 189.454;  13.910;  -3.798;  -4.243;   4.909;   4.885;   4.280;   2.338;  -0.324;;;;;;;;;;;;;;;;;;
2006-12-03T00:09:49.827Z;0;4.7470e+01;0;     0.074;  4806.116;  62054.434; 0;  61868.035;  62054.434;  64317.746;  59511.629; 34;   4.888; 345.007; 185.057; 175.526; 191.517; 189.515;  13.911;  -3.780;  -4.225;   4.909;   4.885;   4.280;   2.339;  -0.322;;;;;;;;;;;;;;;;;;
2006-12-03T00:09:57.827Z;0;4.7440e+01;0;     0.076;  4806.116;  62036.387; 0;  61849.934;  62036.387;  64299.660;  59493.543; 34;   4.888; 345.069; 185.118; 175.589; 191.576; 189.576;  13.912;  -3.761;  -4.206;   4.909;   4.886;   4.279;   2.341;  -0.320;;;;;;;;;;;;;;;;;;
2006-12-03T00:10:05.827Z;0;4.7470e+01;0;     0.076;  4792.760;  62054.922; 0;  61869.562;  62054.922;  64312.336;  59519.574; 34;   4.889; 345.131; 185.179; 175.651; 191.636; 189.638;  13.913;  -3.743;  -4.188;   4.909;   4.886;   4.279;   2.342;  -0.319;;;;;;;;;;;;;;;;;;
2006-12-03T00:10:13.827Z;0;4.7550e+01;0;     0.074;  4792.760;  62108.465; 0;  61923.266;  62108.465;  64365.996;  59573.238; 34;   4.889; 345.193; 185.240; 175.714; 191.697; 189.700;  13.913;  -3.724;  -4.169;   4.910;   4.887;   4.279;   2.343;  -0.317;;;;;;;;;;;;;;;;;;
2006-12-03T00:10:21.827Z;0;4.7510e+01;0;     0.077;  4792.760;  62080.395; 0;  61895.113;  62080.395;  64337.863;  59545.105; 34;   4.889; 345.255; 185.301; 175.777; 191.757; 189.763;  13.914;  -3.706;  -4.151;   4.910;   4.887;   4.279;   2.344;  -0.316;;;;;;;;;;;;;;;;;;
2006-12-03T00:10:29.827Z;0;4.7400e+01;0;     0.075;  4792.760;  62011.828; 0;  61826.340;  62011.828;  64269.145;  59476.383; 34;   4.890; 345.317; 185.362; 175.839; 191.817; 189.825;  13.915;  -3.687;  -4.132;   4.910;   4.887;   4.279;   2.346;  -0.314;;;;;;;;;;;;;;;;;;
2006-12-03T00:10:37.826Z;0;4.7570e+01;0;     0.079;  4792.760;  62119.184; 0;  61934.016;  62119.184;  64376.742;  59583.980; 34;   4.890; 345.379; 185.423; 175.902; 191.878; 189.887;  13.916;  -3.669;  -4.113;   4.910;   4.888;   4.279;   2.347;  -0.313;;;;;;;;;;;;;;;;;;
2006-12-03T00:10:45.826Z;0;4.7800e+01;0;     0.081;  4792.760;  62267.363; 0;  62082.637;  62267.363;  64525.250;  59732.492; 34;   4.890; 345.441; 185.484; 175.964; 191.938; 189.950;  13.917;  -3.650;  -4.095;   4.910;   4.888;   4.279;   2.348;  -0.311;;;;;;;;;;;;;;;;;;